Regional Weather Roundup
Issued by NWS Green Bay, WI

Home | Current Version | Previous Version | Text Only | Print | Product List | Glossary On
Versions: 1 2 3 4 5 6 7 8 9 10 11 12 13 14 15 16 17 18 19 20 21 22 23 24 25 26 27 28 29 30 31 32 33 34 35 36 37 38 39 40 41 42 43 44 45 46 47 48 49 50
000
ASUS43 KGRB 230811
RWRGRB

NORTH-CENTRAL AND NORTHEAST WISCONSIN REGIONAL WEATHER ROUNDUP
NATIONAL WEATHER SERVICE GREEN BAY WI
300 AM CDT WED AUG 23 2017

WIZ005-009-010>012-018-019-230900-
NORTH CENTRAL WISCONSIN

CITY           SKY/WX    TMP DP  RH WIND       PRES   REMARKS
IRONWOOD       MOCLDY    55  54  94 NW6       29.98R
MANITOWISH WTR CLOUDY    53  53 100 W6        29.98R
ARBOR VITAE    MOCLDY    57  55  93 NW6       29.98R
EAGLE RIVER    PTCLDY    53  52  97 NW5       29.96R
LAND O LAKES   MOCLDY    55  52  92 NW5       29.98R
RHINELANDER    PTCLDY    52  51  97 W6        29.99R
PHILLIPS       CLEAR     52  52  99 CALM      30.00R
ANTIGO         CLEAR     51  50  97 W7        29.98R
TOMAHAWK         N/A     49  48  95 W3        30.00R
MERRILL        CLEAR     52  52 100 W6        30.00R
$$

WIZ013-073-230900-
NORTHEAST WISCONSIN

CITY           SKY/WX    TMP DP  RH WIND       PRES   REMARKS
IRON MOUNTAIN  CLEAR     54  50  86 NW7       29.91R
MARINETTE      CLEAR     55  52  89 VRB3      29.93R
OCONTO         CLEAR     55  51  86 W7        29.94R
$$

WIZ017-030-035>037-045-230900-
CENTRAL WISCONSIN

CITY           SKY/WX    TMP DP  RH WIND       PRES   REMARKS
MEDFORD        CLEAR     51  48  90 W5        30.01R
WAUSAU         CLEAR     54  50  86 NW7       29.98R
MOSINEE        CLEAR     52  50  93 W7        30.01R
MARSHFIELD     CLEAR     53  47  79 W6        30.01R
WISC RAPIDS    CLEAR     54  49  83 NW8       30.02R
STEVENS POINT  CLEAR     54  49  85 W5        30.01R
WAUPACA        CLEAR     58  50  74 W6        29.99R
SHAWANO        CLEAR     58  51  78 W5        29.96R
CLINTONVILLE   CLEAR     55  48  76 NW7       29.97R
WAUTOMA        CLEAR     53  49  86 W6        30.01R
$$

WIZ038-039-048-051-230900-
FOX VALLEY

CITY           SKY/WX    TMP DP  RH WIND       PRES   REMARKS
NWS GREEN BAY  CLEAR     55  53  93 W7        29.96R
APPLETON       CLEAR     54  45  71 W8        29.97R
OSHKOSH        CLEAR     58  49  72 W7        29.97R
FOND DU LAC    CLEAR     58  49  72 W6        29.99R
$$

WIZ022-050-052-230900-
EAST CENTRAL WISCONSIN

CITY           SKY/WX    TMP DP  RH WIND       PRES   REMARKS
EPHRAIM        FAIR      58  53  82 NW8       29.91R
WASHINGTON ISL FAIR      59  53  83 NW8       29.89R
STURGEON BAY   CLEAR     60  54  80 W9        29.94R
MANITOWOC      CLEAR     60  50  69 W10       29.95S
SHEBOYGAN      CLEAR     57  52  83 W6        29.96S
$$

LMZ563-521-522-541>543-230900-
LAKESHORE

STATION/POSITION TIME  TEMP    WIND        PRES    VSBY  WAVE
                       AIR SEA DIR/SP/G                  HT/PER
                 (UTC) (F)     (DEG/KT/KT) (MB)    (MI)  (FT/S)
SHEBOYGAN LKSHOR 0800   61     260/ 12/ 14 1014.1R
KEWAUNEE LKSHORE 0748   58     290/  3/  5 1012.8R
NORTHPORT PIER   0740   62     310/ 16/ 20 1012.2R
N MID LAKE BUOY  0750   62 67  310/ 19/ 23 1011.7R         3/ 4
S GREEN BAY BUOY 0800   63 70  280/ 16/ 19 1013.6
SISTER BAY LKSHO 0803   61     330/ 18/ 20   N/A
MENOMINEE LKSHOR 0748   58     250/  8/ 10 1012.9R
$$



USA.gov is the U.S. government's official web portal to all federal, state and local government web resources and services.